Miscellaneous Local Product
Issued by NWS Hastings, NE

Home | Current Version | Previous Version | Graphics & Text | Print | Product List | Glossary On
Versions: 1 2 3 4 5 6 7 8 9 10 11 12 13 14 15 16 17 18 19 20 21 22 23 24 25 26 27 28 29 30 31 32 33 34 35 36 37 38 39 40 41 42 43 44 45 46 47 48 49 50
000
AXUS43 KGID 191502
MISGRI

GID CWA HOURLY WEATHER ROUNDUP
NATIONAL WEATHER SERVICE HASTINGS NE
1000 AM CDT THU APR 19 2018

NOTE: "FAIR" INDICATES FEW OR NO CLOUDS BELOW 12,000 FEET WITH NO
SIGNIFICANT WEATHER AND/OR OBSTRUCTIONS TO VISIBILITY.

...SOUTH CENTRAL NEBRASKA...

CITY           SKY/WX    TMP DP  RH WIND       PRES   REMARKS
GRAND ISLAND   SUNNY     40  31  70 N6        30.47R
KEARNEY        SUNNY     40  32  73 N5        30.47R
HASTINGS       SUNNY     42  31  64 N6        30.47R
ORD            SUNNY     39  33  79 VRB5      30.45S
YORK             N/A     39  36  87 CALM      30.47R
AURORA         SUNNY     39  31  71 N5        30.47R
LEXINGTON      SUNNY     40  32  73 CALM      30.46R
HOLDREGE       SUNNY     40  34  78 CALM      30.45S
HEBRON         SUNNY     42  31  65 CALM      30.48R

...NEBRASKA PANHANDLE...

CITY           SKY/WX    TMP DP  RH WIND       PRES   REMARKS
CHADRON        SUNNY     46  36  68 VRB6      30.34F
ALLIANCE       SUNNY     43  35  73 S17       30.34F
SCOTTSBLUFF    SUNNY     43  33  68 SE15      30.32F
SIDNEY         SUNNY     44  32  62 S20       30.35S

...WESTERN AND NORTH CENTRAL NEBRASKA...

CITY           SKY/WX    TMP DP  RH WIND       PRES   REMARKS
VALENTINE      SUNNY     39  34  82 MISG      30.42S
AINSWORTH      SUNNY     39  32  76 S5        30.44R
ONEILL         SUNNY     41  33  73 CALM      30.47R
BROKEN BOW     SUNNY     42  31  64 CALM      30.44R
IMPERIAL       SUNNY     43  34  70 E7        30.40S
NORTH PLATTE   SUNNY     40  33  76 VRB3      30.43S
MCCOOK         SUNNY     41  31  67 E7        30.44S

...EASTERN NEBRASKA...

CITY           SKY/WX    TMP DP  RH WIND       PRES   REMARKS
NORFOLK        SUNNY     41  26  55 VRB3      30.45R
SO SIOUX CITY  SUNNY     39  26  59 SE3       30.47R
TEKAMAH        SUNNY     39  31  72 VRB3      30.47R
COLUMBUS       SUNNY     41  29  62 CALM      30.49R
ALBION         SUNNY     42  28  59 E6        30.47R
OMAHA EPPLEY   SUNNY     42  32  67 N3        30.46R
OFFUTT AFB     SUNNY     42  32  66 N3        30.45R
MILLARD        SUNNY     43  30  59 NE3       30.47R
LINCOLN        SUNNY     43  31  62 CALM      30.48R
NEBRASKA CITY  SUNNY     42  33  70 NE8       30.46R
BEATRICE       SUNNY     44  33  66 N3        30.47R
FALLS CITY     SUNNY     44  29  55 N13       30.45S

...NORTHERN KANSAS...

CITY           SKY/WX    TMP DP  RH WIND       PRES   REMARKS
GOODLAND       SUNNY     47  29  49 SE9       30.39S
HILL CITY      SUNNY     45  32  60 VRB7      30.46S
NORTON         SUNNY     45  34  65 NE5       30.44S
PHILLIPSBURG   SUNNY     43  32  65 NE6       30.47S
SMITH CENTER   SUNNY     43  28  56 CALM      30.49R
BELOIT         SUNNY     12   3  67 CALM      30.49R
HAYS           SUNNY     44  32  62 NE9       30.47R
RUSSELL        SUNNY     43  33  68 NE8       30.46R
CONCORDIA      SUNNY     43  29  57 NE9       30.47R
SALINA         SUNNY     45  29  53 NE10      30.49R
TOPEKA         SUNNY     44  31  60 NE8       30.46R



USA.gov is the U.S. government's official web portal to all federal, state and local government web resources and services.